Погода в Чернышевке

Россия / Томская область     56°59′58″N   81°59′31″E
темп.,
°C
ветер,
м/с
пор.,
м/с
влажн.,
%
обл.,
%
осадки,
мм/ч
давл.,
гПа
погр.,
м
13 мая, чт
чт1301:00+10сз224988 0.0 101416
04:00+9сз3790100 0.0 1014276
07:00+10ссз3787100 0.0 1014465
10:00+10ссз3583100 0.2 1015523
13:00+11ссз3476100 0.3 1015672
16:00+12сз4466100 0.1 1015950
19:00+12ссз256458 0.1 1015757
22:00+8з22783 0.0 101611
14 мая, пт
пт1401:00+7ссз311755 0.0 1017376
04:00+7ссз4108459 0.0 1018646
07:00+5ссз511686 0.0 1021737
10:00+8ссз474281 0.0 1022950
13:00+12сз572894 0.0 10221382
16:00+14сз462599 0.0 10211665
19:00+14зсз373199 0.0 10211612
22:00+10ююз1257100 0.0 102144
15 мая, сб
сб1501:00+10юз5155835 0.0 1018417
04:00+10зюз414695 0.5 1016429
07:00+11зюз4137563 0.6 1017498
10:00+17з586447 0.0 1015614
13:00+23зюз584581 0.0 10141347
16:00+26з61136100 0.0 10122914
19:00+25юз812435 0.0 10101720
22:00+15юз2386100 1.7 101270
16 мая, вс
вс1601:00+14ююз229499 1.8 101113
04:00+12з2495100 0.0 101278
07:00+13ссв2493100 0.3 1012155
10:00+13с2496100 2.0 1013274
13:00+12ссв4588100 2.1 1016600
16:00+15с3474100 0.0 1016995
19:00+14с1375100 0.1 1017518
22:00+11ююз2287100 0.0 101826
17 мая, пн
пн1701:00+9ю249261 0.0 101774
04:00+11ююз3984100 0.0 1017269
07:00+12ююз4118866 0.9 1016438
10:00+18юз596510 0.0 1013670
13:00+26зюз610425 0.1 10101501
16:00+29з512275 0.0 10073780
19:00+26зюз410345 0.0 1006521
22:00+21зюз71650100 0.1 1006803